Hourly Data Report for February 15, 2019

TORONTO INTL A
ONTARIO
Current Station Operator: NAVCAN

43°40'36.000" N
79°37'50.000" W
173.40 m
6158731
71624
YYZ

Download Data

Hourly Data (February 2019)
Hourly Data Report for February 15, 2019
TIME
LST
Temp Definition
°C
Dew Point Definition
°C
Rel Hum Definition
%
Precip. Amount Definition
mm

Wind Dir Definition
10's deg

Wind Spd Definition
km/h
Visibility Definition
km
Stn Press Definition
kPa
Hmdx Definition


Wind Chill Definition


Weather Definition


00:00 1.5 -1.2 82   9 13 24.1 98.06     Rain, Snow
01:00 1.7 -0.8 83   11 16 24.1 97.89     Rain
02:00 3.1 0.3 82   12 14 24.1 97.81     Rain
03:00 2.1 -0.8 81   14 5 17.7 97.76     Rain
04:00 2.2 -0.4 83   12 14 17.7 97.58     Rain
05:00 2.0 -0.2 85   16 11 24.1 97.55     LegendNANA
06:00 2.4 0.4 87   18 8 24.1 97.49     LegendNANA
07:00 2.9 1.1 88   19 11 19.3 97.47     Rain
08:00 3.5 1.7 88   23 19 16.1 97.52     Rain
09:00 2.1 0.0 86   26 44 16.1 97.65     Rain
10:00 2.0 -1.1 80   26 40 24.1 97.73     Mostly Cloudy
11:00 1.5 -2.6 74   26 43 24.1 97.76     LegendNANA
12:00 1.0 -3.5 72   25 41 19.3 97.85     Snow Showers
13:00 -0.6 -5.4 70   27 42 19.3 97.94   -8 Snow Showers
14:00 -1.2 -6.7 67   26 45 24.1 97.98   -9 LegendNANA
15:00 -1.4 -7.2 65   26 44 24.1 98.08   -10 LegendNANA
16:00 -2.5 -8.5 63   27 43 24.1 98.27   -11 Mostly Cloudy
17:00 -3.2 -9.1 64   28 44 24.1 98.47   -12 LegendNANA
18:00 -3.4 -9.2 64   27 31 24.1 98.61   -11 LegendNANA
19:00 -4.0 -9.7 65   26 30 24.1 98.64   -12 Clear
20:00 -4.5 -10.1 65   26 28 24.1 98.71   -12 LegendNANA
21:00 -4.4 -9.7 67   25 33 24.1 98.73   -13 LegendNANA
22:00 -4.2 -9.2 68   25 28 24.1 98.77   -12 Mostly Cloudy
23:00 -4.0 -8.8 69   24 27 24.1 98.78   -11 LegendNANA

Notes on Data Quality.

Legend

  • E = Estimated
  • M = Missing
  • NA = Not Available*
  • [empty] = Indicates an unobserved value
Date modified: